SCP
-0 -0 -0 0 0 0 0 -0 -0 0 0 0 -0 -0 -0 0 -0 -0 -0 -0 -0 -0 -0 -0 -0 -0 -0 -0 -0 -0 -0 -0
-0 0 0 -0 -0 0 -0 -0 -0 -0 0 -0 -0 -0 0 -0 -0 -0 -0 0 -0 -0 -0 -0 -0 -0 -0 -0 -0 -0 -0 -0
0 0 0 0 -0 -0 -0 0 -0 -0 -0 -0 0 -0 -0 -0 -0 -0 -0 0 -0 -0 -0 -0 -0 -0 -0 -0 -0 -0 -0 -0
0 0 0 0 0 -0 -0 -0 -0 -0 0 -0 -0 -0 -0 -0 -0 -0 -0 -0 0 -0 -0 -0 -0 -0 -0 -0 -0 -0 -0 -0
0 0 0 0 -0 -0 -0 0 -0 0 0 -0 -0 0 -0 -0 0 0 -0 -0 -0 -0 -0 -0 -0 -0 -0 -0 -0 -0 -0 -0
0 0 0 0 0 0 0 0 0 -0 -0 -0 -0 0 0 0 0 0 0 -0 -0 -0 0 0 0 -0 -0 0 0 0 -0 -0
0 0 0 -0 0 0 0 0 -0 -0 0 0 -0 -0 0 0 0 0 0 -0 -0 -0 0 0 0 0 0 -0 0 0 -0 -0
0 -0 -0 -0 0 -0 -0 -0 0 0 0 0 0 0 -0 0 0 0 0 0 -0 0 0 0 0 0 0 0 0 0 0 0
0 -0 -0 -0 -0 -0 -0 -0 0 0 0 0 0 0 0 -0 -0 0 -0 0 0 0 0 0 0 0 0 0 0 0 0 0
-0 -0 -0 -0 0 -0 0 0 0 0 0 0 0 0 0 0 -0 0 0 -0 -0 -0 -0 0 0 0 0 0 0 0 0 0
0 -0 -0 0 0 0 0 0 0 0 0 0 0 0 0 0 0 0 0 0 0 0 0 0 0 0 0 0 0 0 0 0
0 0 0 0 0 0 0 0 0 0 0 0 -0 0 0 -0 0 0 0 0 0 0 0 0 0 0 0 0 0 0 0 0
0 0 0 0 0 0 0 0 0 0 0 0 -0 -0 -0 -0 -0 0 0 0 0 0 0 0 0 0 0 0 0 0 0 0
0 0 0 0 0 0 0 -0 -0 0 0 0 0 0 0 0 0 0 0 0 0 0 0 0 0 0 0 0 0 0 0 0
0 -0 -0 0 0 0 0 -0 0 0 0 0 0 0 0 0 0 0 0 0 0 0 0 0 0 0 0 0 1 0 0 0
0 0 0 0 0 0 0 0 0 0 0 0 0 0 0 0 0 0 0 0 0 0 0 0 0 0 0 0 1 0 0 0
0 0 0 0 0 0 0 0 0 0 0 0 0 0 0 0 0 0 0 0 0 0 0 0 0 0 1 0 0 0 0 0
0 0 0 0 0 0 0 0 0 0 0 0 0 0 0 0 0 0 0 0 0 0 0 0 0 0 0 0 0 0 0 0
0 0 0 0 0 0 0 0 0 0 0 0 0 0 0 0 0 0 0 0 0 0 0 0 0 0 0 0 0 0 0 0
0 0 0 0 0 0 0 0 0 0 0 0 0 0 0 -0 -0 -0 0 0 0 0 0 0 0 0 0 0 0 0 0 0
Wind_Speed_500mb
8 7 7 8 11 15 22 51 3 4 2 5 2 22 63 57 62 64 57 51 46 40 36 33 32 31 29 26 25 23 21 19
7 9 15 15 13 15 7 18 28 14 1 13 7 49 42 52 63 62 56 50 44 38 34 32 31 29 28 27 25 23 20 18
2 11 13 9 16 37 13 21 15 19 7 12 35 15 40 51 64 57 55 50 43 37 33 30 29 27 25 24 23 21 19 16
4 10 14 14 3 46 19 19 11 11 11 7 20 31 43 54 60 53 51 48 43 38 33 29 27 25 22 21 20 18 17 15
6 11 12 12 17 9 28 22 4 10 9 12 28 45 53 55 55 50 47 46 43 39 36 31 27 23 21 18 16 15 13 12
5 7 12 18 8 18 25 12 28 14 14 15 43 54 51 51 51 51 47 44 42 40 37 33 30 27 24 20 17 14 12 10
8 6 10 16 11 17 9 18 1 4 25 42 62 52 47 45 46 44 41 35 33 34 34 32 30 28 25 23 21 19 16 14
8 5 6 5 13 6 8 12 10 33 39 55 53 45 38 37 36 38 35 32 28 28 29 30 31 29 27 26 22 18 17 16
13 12 6 11 9 5 23 5 16 45 58 56 50 43 39 37 29 25 31 31 27 28 28 30 28 27 29 27 25 21 20 19
6 3 12 7 21 5 34 21 31 50 59 57 44 29 29 31 35 32 33 33 31 39 41 39 35 34 30 29 29 27 24 24
7 2 10 21 8 16 40 43 45 60 64 56 51 37 27 28 38 36 30 29 28 35 38 44 39 37 36 34 32 28 30 32
9 7 4 6 7 13 23 43 48 50 46 44 44 39 30 25 30 43 43 42 41 38 42 38 45 42 39 38 32 30 29 30
6 2 4 7 15 7 42 46 50 45 38 33 28 24 24 22 24 26 32 33 27 29 40 42 42 43 40 34 33 37 35 35
9 5 3 12 2 7 37 53 46 41 40 38 35 27 18 16 14 13 19 24 25 28 33 33 48 51 46 47 47 48 48 45
16 6 4 11 9 17 20 58 44 39 36 37 37 30 24 15 3 6 20 33 40 35 40 35 40 47 50 48 48 48 51 51
6 11 14 29 15 13 23 44 42 39 35 36 34 29 22 16 10 6 9 13 18 26 35 41 42 45 48 45 43 43 45 49
10 14 14 16 19 14 21 35 38 36 34 33 31 28 25 24 17 9 4 2 20 22 28 34 39 46 48 54 57 50 58 60
7 13 15 19 17 17 19 12 29 35 30 30 29 28 25 24 21 18 14 9 6 9 17 26 27 30 37 47 50 48 49 54
3 8 11 13 8 10 12 23 27 33 32 31 29 28 25 25 25 24 22 21 18 18 21 20 19 19 24 33 33 31 34 41
5 9 4 8 7 6 9 9 13 30 33 32 30 27 26 26 28 28 33 29 27 26 26 30 31 27 25 24 25 25 25 25
Wind_Direction_500mb
94 111 190 224 218 224 242 230 276 246 248 82 207 133 147 160 164 168 162 160 162 161 162 161 159 155 153 152 148 147 146 144
85 251 247 211 169 217 221 218 206 251 44 81 346 144 154 164 166 167 163 162 165 164 165 163 160 158 156 153 153 152 155 157
342 271 268 263 184 183 156 162 212 202 165 73 140 153 163 164 167 167 163 165 167 165 165 165 161 160 157 157 155 153 150 156
289 263 277 283 261 182 159 174 163 133 84 64 175 177 163 165 165 168 166 166 168 168 169 169 167 163 163 160 156 154 151 150
260 280 329 325 40 88 127 132 209 158 80 128 154 167 158 166 168 168 171 170 171 172 173 175 174 173 170 174 171 165 163 158
270 335 345 336 55 72 99 126 135 146 158 171 158 155 160 167 170 172 175 177 176 178 180 182 182 183 183 182 183 177 179 175
338 8 300 9 69 49 89 134 203 185 145 150 149 153 158 169 176 179 181 187 190 190 190 191 193 195 196 195 194 192 194 199
190 254 192 90 68 87 115 137 116 107 111 144 152 155 156 155 170 182 192 197 206 210 207 207 210 210 215 213 211 211 213 217
277 188 207 99 83 94 125 246 40 110 134 150 161 168 167 163 173 171 186 197 217 219 226 232 236 238 233 235 233 230 231 235
250 223 132 95 129 113 48 85 112 131 145 149 158 164 185 196 195 195 201 212 219 220 222 228 234 241 250 251 255 257 256 256
172 284 78 131 154 89 88 107 118 125 133 129 129 135 156 188 206 213 221 230 239 233 234 234 241 248 247 263 264 269 273 270
209 143 101 104 144 106 99 120 118 127 119 130 138 131 139 149 176 197 207 217 232 236 239 241 246 252 252 254 255 262 277 290
323 342 95 117 41 48 139 131 107 109 114 126 125 156 151 146 155 178 199 217 236 251 251 252 249 254 257 261 265 274 272 279
286 28 45 117 133 203 145 139 108 103 107 115 111 108 128 160 199 229 234 253 272 269 257 262 255 254 260 265 271 276 276 274
311 287 192 80 97 114 118 110 94 94 95 97 102 105 101 103 105 292 283 277 274 270 257 264 265 257 260 272 273 276 272 276
258 313 67 86 115 77 99 97 95 94 92 92 94 83 87 103 128 192 263 251 241 240 246 255 267 262 256 255 252 259 262 265
331 342 75 99 99 87 85 83 88 95 97 89 85 81 88 94 96 76 32 333 230 239 238 251 242 237 239 247 255 277 262 267
310 0 91 106 80 56 42 55 105 119 115 109 102 100 97 95 90 80 74 59 356 321 287 280 287 281 274 272 282 290 288 287
121 344 56 112 104 112 49 78 101 123 134 134 134 120 103 92 81 73 65 52 37 11 1 356 355 345 324 307 303 304 303 308
90 59 216 45 250 140 153 140 140 141 141 146 144 140 122 104 88 68 57 52 45 39 26 26 24 17 7 353 357 3 348 335
Wind_Speed_850mb
8 7 7 8 11 15 22 51 3 4 2 5 2 22 63 57 62 64 57 51 46 40 36 33 32 31 29 26 25 23 21 19
7 9 15 15 13 15 7 18 28 14 1 13 7 49 42 52 63 62 56 50 44 38 34 32 31 29 28 27 25 23 20 18
2 11 13 9 16 37 13 21 15 19 7 12 35 15 40 51 64 57 55 50 43 37 33 30 29 27 25 24 23 21 19 16
4 10 14 14 3 46 19 19 11 11 11 7 20 31 43 54 60 53 51 48 43 38 33 29 27 25 22 21 20 18 17 15
6 11 12 12 17 9 28 22 4 10 9 12 28 45 53 55 55 50 47 46 43 39 36 31 27 23 21 18 16 15 13 12
5 7 12 18 8 18 25 12 28 14 14 15 43 54 51 51 51 51 47 44 42 40 37 33 30 27 24 20 17 14 12 10
8 6 10 16 11 17 9 18 1 4 25 42 62 52 47 45 46 44 41 35 33 34 34 32 30 28 25 23 21 19 16 14
8 5 6 5 13 6 8 12 10 33 39 55 53 45 38 37 36 38 35 32 28 28 29 30 31 29 27 26 22 18 17 16
13 12 6 11 9 5 23 5 16 45 58 56 50 43 39 37 29 25 31 31 27 28 28 30 28 27 29 27 25 21 20 19
6 3 12 7 21 5 34 21 31 50 59 57 44 29 29 31 35 32 33 33 31 39 41 39 35 34 30 29 29 27 24 24
7 2 10 21 8 16 40 43 45 60 64 56 51 37 27 28 38 36 30 29 28 35 38 44 39 37 36 34 32 28 30 32
9 7 4 6 7 13 23 43 48 50 46 44 44 39 30 25 30 43 43 42 41 38 42 38 45 42 39 38 32 30 29 30
6 2 4 7 15 7 42 46 50 45 38 33 28 24 24 22 24 26 32 33 27 29 40 42 42 43 40 34 33 37 35 35
9 5 3 12 2 7 37 53 46 41 40 38 35 27 18 16 14 13 19 24 25 28 33 33 48 51 46 47 47 48 48 45
16 6 4 11 9 17 20 58 44 39 36 37 37 30 24 15 3 6 20 33 40 35 40 35 40 47 50 48 48 48 51 51
6 11 14 29 15 13 23 44 42 39 35 36 34 29 22 16 10 6 9 13 18 26 35 41 42 45 48 45 43 43 45 49
10 14 14 16 19 14 21 35 38 36 34 33 31 28 25 24 17 9 4 2 20 22 28 34 39 46 48 54 57 50 58 60
7 13 15 19 17 17 19 12 29 35 30 30 29 28 25 24 21 18 14 9 6 9 17 26 27 30 37 47 50 48 49 54
3 8 11 13 8 10 12 23 27 33 32 31 29 28 25 25 25 24 22 21 18 18 21 20 19 19 24 33 33 31 34 41
5 9 4 8 7 6 9 9 13 30 33 32 30 27 26 26 28 28 33 29 27 26 26 30 31 27 25 24 25 25 25 25
Wind_Direction_850mb
94 111 190 224 218 224 242 230 276 246 248 82 207 133 147 160 164 168 162 160 162 161 162 161 159 155 153 152 148 147 146 144
85 251 247 211 169 217 221 218 206 251 44 81 346 144 154 164 166 167 163 162 165 164 165 163 160 158 156 153 153 152 155 157
342 271 268 263 184 183 156 162 212 202 165 73 140 153 163 164 167 167 163 165 167 165 165 165 161 160 157 157 155 153 150 156
289 263 277 283 261 182 159 174 163 133 84 64 175 177 163 165 165 168 166 166 168 168 169 169 167 163 163 160 156 154 151 150
260 280 329 325 40 88 127 132 209 158 80 128 154 167 158 166 168 168 171 170 171 172 173 175 174 173 170 174 171 165 163 158
270 335 345 336 55 72 99 126 135 146 158 171 158 155 160 167 170 172 175 177 176 178 180 182 182 183 183 182 183 177 179 175
338 8 300 9 69 49 89 134 203 185 145 150 149 153 158 169 176 179 181 187 190 190 190 191 193 195 196 195 194 192 194 199
190 254 192 90 68 87 115 137 116 107 111 144 152 155 156 155 170 182 192 197 206 210 207 207 210 210 215 213 211 211 213 217
277 188 207 99 83 94 125 246 40 110 134 150 161 168 167 163 173 171 186 197 217 219 226 232 236 238 233 235 233 230 231 235
250 223 132 95 129 113 48 85 112 131 145 149 158 164 185 196 195 195 201 212 219 220 222 228 234 241 250 251 255 257 256 256
172 284 78 131 154 89 88 107 118 125 133 129 129 135 156 188 206 213 221 230 239 233 234 234 241 248 247 263 264 269 273 270
209 143 101 104 144 106 99 120 118 127 119 130 138 131 139 149 176 197 207 217 232 236 239 241 246 252 252 254 255 262 277 290
323 342 95 117 41 48 139 131 107 109 114 126 125 156 151 146 155 178 199 217 236 251 251 252 249 254 257 261 265 274 272 279
286 28 45 117 133 203 145 139 108 103 107 115 111 108 128 160 199 229 234 253 272 269 257 262 255 254 260 265 271 276 276 274
311 287 192 80 97 114 118 110 94 94 95 97 102 105 101 103 105 292 283 277 274 270 257 264 265 257 260 272 273 276 272 276
258 313 67 86 115 77 99 97 95 94 92 92 94 83 87 103 128 192 263 251 241 240 246 255 267 262 256 255 252 259 262 265
331 342 75 99 99 87 85 83 88 95 97 89 85 81 88 94 96 76 32 333 230 239 238 251 242 237 239 247 255 277 262 267
310 0 91 106 80 56 42 55 105 119 115 109 102 100 97 95 90 80 74 59 356 321 287 280 287 281 274 272 282 290 288 287
121 344 56 112 104 112 49 78 101 123 134 134 134 120 103 92 81 73 65 52 37 11 1 356 355 345 324 307 303 304 303 308
90 59 216 45 250 140 153 140 140 141 141 146 144 140 122 104 88 68 57 52 45 39 26 26 24 17 7 353 357 3 348 335